Tracking 28125 objects as of 3-Oct-2023
HD Live streaming from Space Station
objects crossing your sky now

FLOCK 4X 17

Track FLOCK 4X 17 now!
10-day predictions


NORAD ID: 51035
Int'l Code: 2022-002BD
Perigee: 475.0 km
Apogee: 482.7 km
Inclination: 97.4 °
Period: 94.0 minutes
Semi major axis: 6849 km
RCS: Unknown
Launch date: January 13, 2022
Source: United States (US)
Launch site: AIR FORCE EASTERN TEST RANGE (AFETR)
Your satellite tracking list
Your tracking list is empty




NASA's NSSDC Master Catalog

Two Line Element Set (TLE):
1 51035U 22002BD  23276.44210224  .00020664  00000-0  68304-3 0  9991
2 51035  97.4294 344.9746 0005593 204.2739 155.8239 15.31379155 95385
Source of the keplerian elements: AFSPC